Total_Precipitation_Accumulation
0.07 0.08 0.09 0.10 0.05 0.02 0.01 0.00 0.00 0.00 0.00 0.00 0.00 0.00 0.00 0.00 0.01 0.05 0.04 0.03 0.03 0.05 0.09 0.21 0.29 0.33 0.37 0.37 0.35 0.32 0.32 0.33 0.37 0.41 0.39 0.41 0.44 0.45 0.51 0.52 0.54 0.58 0.64 0.70 0.67 0.65 0.67 0.67 0.68
0.08 0.11 0.14 0.12 0.05 0.01 0.01 0.01 0.00 0.00 0.00 0.00 0.00 0.00 0.00 0.01 0.01 0.02 0.04 0.02 0.02 0.03 0.06 0.14 0.26 0.32 0.36 0.35 0.35 0.34 0.33 0.32 0.34 0.40 0.41 0.43 0.48 0.51 0.52 0.55 0.58 0.60 0.66 0.67 0.71 0.72 0.70 0.69 0.66
0.13 0.17 0.17 0.12 0.04 0.01 0.01 0.00 0.00 0.00 0.00 0.01 0.00 0.01 0.01 0.01 0.01 0.02 0.02 0.01 0.01 0.03 0.06 0.13 0.26 0.33 0.37 0.40 0.40 0.37 0.36 0.36 0.37 0.42 0.45 0.49 0.55 0.57 0.54 0.56 0.57 0.59 0.62 0.60 0.64 0.69 0.65 0.62 0.57
0.20 0.25 0.20 0.10 0.02 0.01 0.00 0.00 0.00 0.00 0.00 0.01 0.01 0.01 0.01 0.01 0.01 0.02 0.02 0.01 0.01 0.04 0.07 0.13 0.27 0.35 0.40 0.45 0.48 0.43 0.40 0.41 0.44 0.47 0.50 0.52 0.55 0.58 0.58 0.56 0.50 0.50 0.55 0.56 0.59 0.62 0.60 0.60 0.57
0.28 0.26 0.18 0.08 0.01 0.00 0.00 0.00 0.00 0.00 0.00 0.01 0.02 0.01 0.02 0.02 0.01 0.02 0.02 0.02 0.02 0.05 0.09 0.14 0.29 0.37 0.40 0.46 0.51 0.49 0.46 0.45 0.47 0.51 0.54 0.56 0.58 0.60 0.57 0.57 0.51 0.46 0.44 0.49 0.55 0.59 0.60 0.64 0.59
0.36 0.27 0.13 0.04 0.01 0.00 0.00 0.00 0.00 0.00 0.01 0.01 0.03 0.04 0.03 0.03 0.03 0.03 0.03 0.03 0.03 0.06 0.10 0.17 0.33 0.38 0.42 0.48 0.55 0.54 0.53 0.52 0.53 0.55 0.59 0.61 0.62 0.63 0.58 0.54 0.53 0.50 0.44 0.43 0.47 0.54 0.63 0.67 0.60
0.37 0.24 0.09 0.02 0.01 0.01 0.01 0.00 0.00 0.01 0.02 0.03 0.04 0.05 0.04 0.06 0.05 0.04 0.04 0.05 0.07 0.09 0.12 0.19 0.31 0.38 0.46 0.55 0.60 0.59 0.58 0.57 0.56 0.58 0.61 0.64 0.64 0.66 0.62 0.57 0.52 0.50 0.48 0.47 0.45 0.48 0.57 0.62 0.60
0.39 0.30 0.13 0.04 0.02 0.01 0.01 0.01 0.00 0.01 0.02 0.03 0.03 0.03 0.04 0.06 0.06 0.07 0.08 0.10 0.12 0.13 0.15 0.21 0.30 0.37 0.45 0.55 0.60 0.62 0.63 0.65 0.62 0.60 0.56 0.52 0.56 0.64 0.61 0.51 0.49 0.49 0.48 0.49 0.45 0.43 0.46 0.49 0.51
0.51 0.45 0.18 0.05 0.03 0.02 0.01 0.02 0.01 0.01 0.03 0.03 0.03 0.03 0.03 0.05 0.08 0.11 0.16 0.20 0.20 0.20 0.21 0.24 0.33 0.41 0.51 0.57 0.57 0.64 0.69 0.70 0.67 0.63 0.53 0.52 0.52 0.52 0.50 0.42 0.41 0.47 0.49 0.49 0.50 0.51 0.45 0.40 0.35
0.65 0.48 0.17 0.06 0.05 0.04 0.03 0.04 0.03 0.03 0.03 0.04 0.04 0.04 0.06 0.08 0.12 0.14 0.17 0.21 0.22 0.23 0.26 0.28 0.35 0.45 0.55 0.56 0.59 0.69 0.70 0.67 0.62 0.57 0.52 0.53 0.54 0.50 0.45 0.42 0.42 0.45 0.47 0.50 0.53 0.54 0.49 0.42 0.34
0.61 0.43 0.19 0.08 0.07 0.08 0.07 0.06 0.05 0.05 0.05 0.05 0.07 0.05 0.08 0.13 0.17 0.16 0.17 0.21 0.22 0.25 0.29 0.30 0.39 0.50 0.58 0.62 0.61 0.65 0.70 0.71 0.67 0.63 0.58 0.58 0.62 0.59 0.50 0.45 0.42 0.46 0.45 0.48 0.50 0.51 0.48 0.47 0.47
0.54 0.36 0.23 0.14 0.10 0.12 0.13 0.10 0.08 0.08 0.07 0.06 0.10 0.08 0.10 0.14 0.17 0.17 0.19 0.25 0.32 0.33 0.35 0.36 0.42 0.55 0.64 0.66 0.64 0.63 0.62 0.62 0.62 0.62 0.63 0.63 0.62 0.56 0.47 0.42 0.37 0.37 0.39 0.43 0.48 0.47 0.45 0.47 0.49
0.50 0.33 0.23 0.18 0.15 0.15 0.16 0.15 0.12 0.11 0.07 0.07 0.15 0.16 0.16 0.18 0.21 0.24 0.29 0.34 0.37 0.39 0.41 0.41 0.44 0.54 0.67 0.76 0.73 0.68 0.64 0.58 0.59 0.64 0.66 0.60 0.57 0.52 0.48 0.45 0.44 0.40 0.37 0.38 0.42 0.44 0.45 0.44 0.47
0.46 0.37 0.28 0.23 0.22 0.21 0.22 0.20 0.16 0.14 0.10 0.12 0.19 0.22 0.22 0.22 0.25 0.29 0.33 0.35 0.38 0.41 0.46 0.51 0.52 0.56 0.67 0.74 0.73 0.69 0.70 0.69 0.68 0.63 0.62 0.64 0.62 0.59 0.57 0.53 0.52 0.50 0.43 0.40 0.43 0.47 0.50 0.49 0.48
0.44 0.49 0.43 0.32 0.27 0.28 0.30 0.32 0.21 0.14 0.14 0.19 0.22 0.23 0.23 0.25 0.29 0.31 0.33 0.35 0.37 0.45 0.52 0.57 0.63 0.64 0.67 0.71 0.76 0.76 0.75 0.74 0.70 0.62 0.58 0.59 0.62 0.64 0.60 0.57 0.53 0.53 0.54 0.53 0.50 0.49 0.55 0.52 0.49
0.66 0.74 0.64 0.38 0.28 0.32 0.42 0.41 0.20 0.16 0.17 0.23 0.23 0.25 0.23 0.22 0.26 0.32 0.37 0.43 0.48 0.56 0.61 0.65 0.70 0.70 0.72 0.74 0.81 0.84 0.83 0.81 0.74 0.67 0.63 0.59 0.59 0.65 0.68 0.63 0.58 0.58 0.61 0.63 0.59 0.52 0.53 0.54 0.52
0.94 0.83 0.54 0.32 0.26 0.34 0.42 0.36 0.21 0.19 0.21 0.22 0.23 0.27 0.27 0.25 0.25 0.29 0.35 0.44 0.53 0.59 0.66 0.73 0.75 0.75 0.76 0.78 0.87 0.94 0.94 0.89 0.84 0.77 0.67 0.63 0.65 0.65 0.67 0.67 0.65 0.69 0.71 0.66 0.66 0.61 0.63 0.61 0.59
0.74 0.53 0.41 0.32 0.28 0.31 0.34 0.27 0.22 0.22 0.23 0.23 0.22 0.24 0.27 0.27 0.25 0.28 0.35 0.47 0.59 0.67 0.72 0.80 0.83 0.88 0.92 0.96 0.99 1.09 1.08 1.00 0.94 0.86 0.76 0.66 0.65 0.69 0.74 0.71 0.71 0.75 0.78 0.75 0.73 0.69 0.67 0.66 0.68
0.49 0.44 0.37 0.29 0.26 0.32 0.32 0.26 0.23 0.23 0.23 0.21 0.20 0.21 0.23 0.24 0.24 0.25 0.34 0.45 0.57 0.66 0.75 0.84 0.89 0.94 1.00 0.99 0.94 0.96 0.97 0.98 0.97 0.91 0.87 0.82 0.75 0.71 0.77 0.77 0.74 0.75 0.73 0.70 0.68 0.72 0.72 0.65 0.66
0.63 0.60 0.42 0.32 0.27 0.32 0.33 0.28 0.25 0.26 0.26 0.21 0.18 0.20 0.22 0.24 0.25 0.27 0.31 0.40 0.52 0.60 0.70 0.84 0.87 0.94 0.97 0.91 0.91 0.92 0.97 1.00 1.04 1.03 0.99 0.89 0.82 0.76 0.78 0.83 0.80 0.74 0.73 0.69 0.64 0.64 0.67 0.64 0.63
0.72 0.56 0.41 0.40 0.39 0.41 0.40 0.34 0.23 0.23 0.21 0.18 0.15 0.16 0.20 0.23 0.23 0.26 0.30 0.37 0.45 0.56 0.62 0.78 0.83 0.85 0.97 1.02 1.13 1.17 1.21 1.20 1.15 1.08 1.03 0.91 0.81 0.74 0.74 0.82 0.88 0.84 0.76 0.69 0.66 0.65 0.65 0.64 0.60
0.72 0.40 0.39 0.46 0.66 0.78 0.58 0.59 0.24 0.21 0.19 0.17 0.16 0.15 0.16 0.19 0.22 0.25 0.27 0.35 0.43 0.49 0.59 0.70 0.80 0.81 0.94 1.07 1.11 1.07 1.01 0.99 0.91 0.89 0.91 0.86 0.82 0.78 0.74 0.81 0.89 0.92 0.82 0.70 0.67 0.68 0.67 0.67 0.68
0.54 0.38 0.48 0.62 0.81 0.93 0.63 0.62 0.30 0.19 0.22 0.19 0.16 0.16 0.15 0.15 0.18 0.23 0.26 0.33 0.42 0.50 0.63 0.69 0.74 0.78 0.89 1.03 1.08 1.10 1.03 0.97 0.97 0.97 0.96 0.99 0.88 0.83 0.78 0.80 0.84 0.89 0.84 0.76 0.70 0.68 0.70 0.69 0.70
0.55 0.66 0.81 0.97 1.38 1.51 0.57 0.47 0.32 0.21 0.22 0.19 0.16 0.15 0.16 0.15 0.18 0.23 0.28 0.35 0.45 0.57 0.66 0.75 0.78 0.79 0.83 0.96 1.08 1.13 1.10 1.08 1.13 1.06 1.06 1.08 1.06 0.96 0.89 0.88 0.83 0.82 0.78 0.75 0.73 0.72 0.71 0.70 0.69
0.94 1.40 2.08 2.18 2.17 1.25 0.30 0.29 0.29 0.16 0.12 0.13 0.14 0.15 0.17 0.16 0.18 0.22 0.27 0.36 0.48 0.58 0.63 0.75 0.81 0.78 0.79 0.88 0.98 1.02 1.11 1.19 1.18 1.16 1.09 1.08 1.07 1.00 0.92 0.90 0.86 0.83 0.80 0.75 0.73 0.75 0.74 0.75 0.77
0.96 1.23 1.66 1.54 0.99 0.46 0.23 0.28 0.24 0.13 0.09 0.07 0.07 0.10 0.13 0.17 0.19 0.23 0.26 0.34 0.45 0.55 0.60 0.68 0.77 0.77 0.78 0.82 0.87 0.93 1.00 1.16 1.25 1.27 1.21 1.13 1.07 1.02 0.95 0.95 0.93 0.88 0.84 0.84 0.80 0.77 0.75 0.76 0.77
0.84 0.91 0.84 1.12 0.79 0.46 0.34 0.25 0.18 0.11 0.10 0.08 0.07 0.09 0.10 0.12 0.16 0.22 0.24 0.29 0.41 0.51 0.54 0.55 0.69 0.77 0.78 0.82 0.84 0.88 0.93 0.99 1.05 1.18 1.24 1.21 1.16 1.09 1.07 1.03 1.01 0.96 0.94 0.97 0.97 0.90 0.82 0.80 0.78
0.71 0.84 1.05 1.53 1.31 0.67 0.34 0.23 0.22 0.17 0.15 0.12 0.11 0.11 0.13 0.14 0.16 0.22 0.24 0.27 0.35 0.46 0.48 0.47 0.59 0.69 0.70 0.75 0.83 0.86 0.89 0.94 0.97 1.03 1.11 1.13 1.16 1.15 1.14 1.12 1.04 1.00 0.99 1.04 1.12 1.07 0.94 0.90 0.85
0.78 1.03 1.32 1.42 1.08 0.76 0.47 0.34 0.27 0.24 0.21 0.18 0.17 0.17 0.17 0.17 0.18 0.25 0.27 0.30 0.33 0.40 0.43 0.44 0.50 0.66 0.70 0.70 0.75 0.82 0.88 0.94 1.02 1.06 1.04 1.01 1.05 1.11 1.13 1.13 1.08 1.02 1.03 1.06 1.08 1.09 1.08 1.05 0.99
0.73 0.88 1.06 1.40 1.09 0.64 0.52 0.37 0.23 0.22 0.21 0.20 0.21 0.19 0.16 0.16 0.17 0.21 0.25 0.31 0.38 0.44 0.47 0.44 0.47 0.59 0.71 0.72 0.68 0.72 0.84 0.93 1.00 1.03 1.01 1.01 0.97 0.97 1.05 1.10 1.11 1.06 1.03 1.09 1.16 1.14 1.12 1.13 1.11